Regional Weather Roundup
Issued by NWS

Home | Current Version | Previous Version | Graphics & Text | Print | Product List | Glossary On
Versions: 1 2 3 4 5 6 7 8 9 10 11 12 13 14 15 16 17 18 19 20 21 22 23 24 25 26 27 28 29 30 31 32 33 34 35 36 37 38 39 40 41 42 43 44 45 46 47 48 49 50
000
ASUS43 KTOP 180459
RWRKS

WEATHER ROUNDUP FOR KANSAS
NATIONAL WEATHER SERVICE GOODLAND KS
1100 PM CST SUN DEC 17 2017

NOTE:  "FAIR" INDICATES FEW OR NO CLOUDS BELOW 12,000 FEET WITH NO
SIGNIFICANT WEATHER AND/OR OBSTRUCTIONS TO VISIBILITY.

KSZ001>006-013>018-027>032-041>047-180600-
NORTHWEST KANSAS

CITY           SKY/WX    TMP DP  RH WIND       PRES   REMARKS
GOODLAND       CLOUDY    29  24  82 SW10      29.99F WCI  20
HAYS           CLOUDY    24  21  88 W3        30.04S
HILL CITY      CLOUDY    24  22  91 W5        30.03S
RUSSELL        CLOUDY    30  27  88 NW6       30.02F
$$

KSZ061>065-074>080-084>089-180600-
SOUTHWEST KANSAS

CITY           SKY/WX    TMP DP  RH WIND       PRES   REMARKS
DODGE CITY     CLOUDY    26  21  81 W3        30.05R
GARDEN CITY    CLOUDY    26  23  88 SW5       30.05R
GREAT BEND     CLOUDY    26  23  88 W7        30.05S
LIBERAL        CLOUDY    20  17  88 W6        30.05S
$$

KSZ066>073-081>083-090>101-180600-
SOUTHEAST KANSAS

CITY           SKY/WX    TMP DP  RH WIND       PRES   REMARKS
CHANUTE        CLOUDY    45  43  93 S7        30.07R FOG
COFFEYVILLE    CLOUDY    44  43  96 S5        30.08R
HUTCHINSON     CLOUDY    33  29  85 NW5       30.04R
MEDICINE LODGE   N/A     35  32  88 CALM      30.08R
NEWTON         CLEAR     35  34  96 SW7       30.05R
PARSONS        CLOUDY    44  44 100 S3        30.08R
WICHITA INTL   CLEAR     35  34  96 SW6       30.05R
WICHITA JABRA  CLEAR     39  38  96 SW7       30.05R
WICHITA MCCONL CLEAR     39  36  90 W7        30.05R
WINFIELD       CLOUDY    44  43  96 SW6       30.08R
$$

KSZ007>012-019>026-033>040-048>060-102>105-180600-
NORTHEAST KANSAS

CITY           SKY/WX    TMP DP  RH WIND       PRES   REMARKS
CONCORDIA      CLOUDY    32  28  85 W5        30.02S
EMPORIA        CLOUDY    43  39  86 SW5       30.04R
LAWRENCE       CLOUDY    45  42  89 SW10      30.03S
MANHATTAN      CLOUDY    42  36  79 CALM      30.04R
OLATHE IND     CLOUDY    42  42 100 SW8       30.05R
OLATHE EXE     CLOUDY    40  40 100 CALM      30.04R FOG
SALINA         CLEAR     33  27  78 NW7       30.04F
TOPEKA BILLARD CLOUDY    47  42  83 SW12      30.03R
TOPEKA FORBES  CLOUDY    46  41  82 SW10      30.03R
$$



USA.gov is the U.S. government's official web portal to all federal, state and local government web resources and services.